Date String (YYYY-MM-DD hh:mm:ss) UTC,Instrument flags,absolute air pressure of the measurement (hPa),sample flow rate (lpm),inlet stack bypass flow (lpm),air temperature of the measurement (°C),ambient temperature measured by the external sensor (°C),aerosol sample conditioner tube jacket temperature (°C),OPC LED temperature (°C),internal box temperature (°C),relative humidity of the measurement (%),span deviation,mass concentration of particles derived from Lorenz-Mie calculation of OPC scattering (μg/m³),mass concentration of particles derived from Lorenz-Mie calculation of OPC scattering (μg/m³),mass concentration of particles derived from Lorenz-Mie calculation of OPC scattering (μg/m³)
DateTimeUTC,F1_M11,P_M11,Q1_M11,Q2_M11,T1_M11,T2_M11,T3_M11,T4_M11,T5_M11,U1_M11,ZSPAN_M11,X0_M11,X2_M11,X1_M11
2023-06-04 00:00:00,SystemResetWarning,0832.0,5.00,000.00,030.1,028.7,000.0,038.4,031.8,27.5,0000.0,0004.24,0001.50,0001.24
2023-06-04 00:01:00,SystemResetWarning,0832.1,5.01,000.00,030.1,028.7,000.0,038.4,031.7,27.3,0000.0,0004.26,0001.51,0001.25
2023-06-04 00:02:00,SystemResetWarning,0832.0,5.00,000.00,030.1,028.8,000.0,038.4,031.8,26.6,0000.0,0004.30,0001.52,0001.25
2023-06-04 00:03:00,SystemResetWarning,0832.1,4.99,000.00,030.2,028.8,000.0,038.5,031.8,26.1,0000.0,0004.35,0001.52,0001.25
2023-06-04 00:04:00,SystemResetWarning,0832.0,5.00,000.00,030.2,028.8,000.0,038.5,031.9,26.1,0000.0,0003.89,0001.51,0001.25
2023-06-04 00:05:00,SystemResetWarning,0832.0,5.00,000.00,030.2,028.8,000.0,038.5,031.9,26.4,0000.0,0003.35,0001.52,0001.24
2023-06-04 00:06:00,SystemResetWarning,0832.1,5.00,000.00,030.2,028.9,000.0,038.5,031.9,26.6,0000.0,0003.07,0001.51,0001.23
2023-06-04 00:07:00,SystemResetWarning,0832.0,5.01,000.00,030.2,028.9,000.0,038.5,031.9,26.4,0000.0,0002.20,0001.53,0001.24
2023-06-04 00:08:00,SystemResetWarning,0832.1,5.01,000.00,030.3,028.9,000.0,038.5,031.9,26.7,0000.0,0002.21,0001.54,0001.24
2023-06-04 00:09:00,SystemResetWarning,0832.1,5.00,000.00,030.3,028.9,000.0,038.6,031.9,26.3,0000.0,0002.24,0001.55,0001.23
2023-06-04 00:10:00,SystemResetWarning,0832.1,4.99,000.00,030.3,028.9,000.0,038.6,032.0,26.2,0000.0,0002.22,0001.54,0001.23
2023-06-04 00:11:00,SystemResetWarning,0832.1,5.00,000.00,030.3,028.9,000.0,038.6,031.9,26.4,0000.0,0002.24,0001.54,0001.23
2023-06-04 00:12:00,SystemResetWarning,0832.1,4.99,000.00,030.3,027.4,000.0,038.5,031.7,26.4,0000.0,0002.20,0001.53,0001.23
2023-06-04 00:13:00,SystemResetWarning,0832.0,5.01,000.00,030.2,026.1,000.0,038.4,031.5,26.5,0000.0,0002.19,0001.53,0001.23
2023-06-04 00:14:00,SystemResetWarning,0832.0,5.01,000.00,030.1,025.9,000.0,038.4,031.3,26.7,0000.0,0002.18,0001.53,0001.23
2023-06-04 00:15:00,SystemResetWarning,0832.0,5.01,000.00,030.0,026.1,000.0,038.4,031.3,26.5,0000.0,0002.24,0001.55,0001.23
2023-06-04 00:16:00,SystemResetWarning,0832.0,5.01,000.00,030.0,026.4,000.0,038.4,031.3,26.9,0000.0,0002.26,0001.55,0001.24
2023-06-04 00:17:00,SystemResetWarning,0831.9,4.98,000.00,029.9,026.8,000.0,038.4,031.4,26.6,0000.0,0002.26,0001.55,0001.25
2023-06-04 00:18:00,SystemResetWarning,0831.9,5.00,000.00,029.9,027.1,000.0,038.3,031.4,26.6,0000.0,0002.28,0001.57,0001.25
2023-06-04 00:19:00,SystemResetWarning,0832.0,5.02,000.00,029.9,027.4,000.0,038.3,031.4,26.9,0000.0,0002.29,0001.58,0001.26
2023-06-04 00:20:00,SystemResetWarning,0832.0,5.00,000.00,029.9,027.6,000.0,038.3,031.5,27.0,0000.0,0002.24,0001.57,0001.26
2023-06-04 00:21:00,SystemResetWarning,0832.0,4.99,000.00,029.9,027.8,000.0,038.3,031.5,27.0,0000.0,0002.19,0001.56,0001.27
2023-06-04 00:22:00,SystemResetWarning,0832.0,5.00,000.00,029.9,028.0,000.0,038.3,031.5,26.7,0000.0,0002.20,0001.56,0001.27
2023-06-04 00:23:00,SystemResetWarning,0832.0,4.99,000.00,029.9,028.1,000.0,038.3,031.6,26.7,0000.0,0002.33,0001.62,0001.28
2023-06-04 00:24:00,SystemResetWarning,0831.9,5.00,000.00,029.9,028.2,000.0,038.3,031.6,26.5,0000.0,0002.31,0001.62,0001.29
2023-06-04 00:25:00,SystemResetWarning,0831.9,5.00,000.00,030.0,028.3,000.0,038.3,031.6,26.6,0000.0,0002.23,0001.58,0001.29
2023-06-04 00:26:00,SystemResetWarning,0831.9,5.00,000.00,030.0,028.4,000.0,038.3,031.6,26.0,0000.0,0002.20,0001.57,0001.29
2023-06-04 00:27:00,SystemResetWarning,0831.9,5.01,000.00,030.0,028.5,000.0,038.3,031.7,26.0,0000.0,0002.12,0001.55,0001.30
2023-06-04 00:28:00,SystemResetWarning,0831.9,5.00,000.00,030.0,028.5,000.0,038.4,031.7,26.3,0000.0,0002.13,0001.56,0001.30
2023-06-04 00:29:00,SystemResetWarning,0831.9,5.00,000.00,030.1,028.6,000.0,038.4,031.7,26.6,0000.0,0002.11,0001.55,0001.31
2023-06-04 00:30:00,SystemResetWarning,0831.9,5.00,000.00,030.1,028.7,000.0,038.4,031.7,26.9,0000.0,0002.02,0001.51,0001.31
2023-06-04 00:31:00,SystemResetWarning,0831.9,5.00,000.00,030.1,028.7,000.0,038.4,031.8,27.0,0000.0,0002.02,0001.52,0001.32
2023-06-04 00:32:00,SystemResetWarning,0831.8,5.00,000.00,030.1,028.7,000.0,038.4,031.8,26.4,0000.0,0002.14,0001.57,0001.33
2023-06-04 00:33:00,SystemResetWarning,0831.8,5.00,000.00,030.1,028.8,000.0,038.4,031.8,26.3,0000.0,0002.53,0001.58,0001.34
2023-06-04 00:34:00,SystemResetWarning,0831.9,5.01,000.00,030.2,028.8,000.0,038.4,031.8,26.2,0000.0,0002.83,0001.56,0001.35
2023-06-04 00:35:00,SystemResetWarning,0831.9,5.01,000.00,030.2,028.8,000.0,038.5,031.8,26.3,0000.0,0002.91,0001.59,0001.38
2023-06-04 00:36:00,SystemResetWarning,0832.0,5.00,000.00,030.2,028.8,000.0,038.5,031.9,26.4,0000.0,0003.03,0001.65,0001.39
2023-06-04 00:37:00,SystemResetWarning,0832.0,5.00,000.00,030.2,028.9,000.0,038.5,031.9,26.5,0000.0,0003.09,0001.70,0001.42
2023-06-04 00:38:00,SystemResetWarning,0832.1,4.99,000.00,030.2,028.9,000.0,038.5,031.9,26.5,0000.0,0003.08,0001.70,0001.43
2023-06-04 00:39:00,SystemResetWarning,0832.0,5.00,000.00,030.3,028.9,000.0,038.5,031.9,26.4,0000.0,0003.17,0001.74,0001.45
2023-06-04 00:40:00,SystemResetWarning,0832.1,5.01,000.00,030.3,028.9,000.0,038.5,031.9,26.8,0000.0,0003.27,0001.78,0001.47
2023-06-04 00:41:00,SystemResetWarning,0832.1,4.99,000.00,030.3,028.0,000.0,038.5,031.8,27.0,0000.0,0003.32,0001.80,0001.48
2023-06-04 00:42:00,SystemResetWarning,0832.0,5.00,000.00,030.2,026.3,000.0,038.4,031.5,26.9,0000.0,0003.34,0001.81,0001.48
2023-06-04 00:43:00,SystemResetWarning,0832.1,5.00,000.00,030.1,025.7,000.0,038.3,031.3,27.5,0000.0,0003.36,0001.81,0001.48
2023-06-04 00:44:00,SystemResetWarning,0832.0,5.01,000.00,030.0,025.9,000.0,038.3,031.2,27.6,0000.0,0003.11,0001.83,0001.49
2023-06-04 00:45:00,SystemResetWarning,0832.1,5.01,000.00,029.9,026.2,000.0,038.3,031.3,27.6,0000.0,0002.80,0001.87,0001.51
2023-06-04 00:46:00,SystemResetWarning,0832.1,4.99,000.00,029.9,026.6,000.0,038.3,031.3,27.7,0000.0,0002.68,0001.86,0001.51
2023-06-04 00:47:00,SystemResetWarning,0832.1,5.00,000.00,029.9,026.9,000.0,038.3,031.4,27.5,0000.0,0002.60,0001.83,0001.52
2023-06-04 00:48:00,SystemResetWarning,0832.2,5.01,000.00,029.8,027.2,000.0,038.3,031.4,27.8,0000.0,0002.56,0001.81,0001.53
2023-06-04 00:49:00,SystemResetWarning,0832.2,5.01,000.00,029.8,027.5,000.0,038.3,031.4,27.4,0000.0,0002.64,0001.87,0001.56
2023-06-04 00:50:00,SystemResetWarning,0832.2,5.00,000.00,029.8,027.7,000.0,038.3,031.4,27.4,0000.0,0002.78,0001.90,0001.58
2023-06-04 00:51:00,SystemResetWarning,0832.2,5.00,000.00,029.8,027.8,000.0,038.3,031.5,27.6,0000.0,0002.95,0001.94,0001.59
2023-06-04 00:52:00,SystemResetWarning,0832.3,5.00,000.00,029.9,028.0,000.0,038.3,031.5,27.7,0000.0,0002.90,0001.95,0001.61
2023-06-04 00:53:00,SystemResetWarning,0832.3,5.00,000.00,029.9,028.1,000.0,038.3,031.5,27.4,0000.0,0003.00,0001.99,0001.63
2023-06-04 00:54:00,SystemResetWarning,0832.3,5.00,000.00,029.9,028.2,000.0,038.3,031.5,27.4,0000.0,0003.09,0002.01,0001.65
2023-06-04 00:55:00,SystemResetWarning,0832.3,5.00,000.00,029.9,028.3,000.0,038.3,031.5,27.2,0000.0,0003.44,0002.05,0001.68
2023-06-04 00:56:00,SystemResetWarning,0832.3,5.00,000.00,029.9,028.4,000.0,038.3,031.6,27.4,0000.0,0003.54,0002.09,0001.70
2023-06-04 00:57:00,SystemResetWarning,0832.4,5.00,000.00,029.9,028.4,000.0,038.3,031.6,28.0,0000.0,0003.53,0002.08,0001.70
2023-06-04 00:58:00,SystemResetWarning,0832.5,5.00,000.00,030.0,028.5,000.0,038.3,031.6,27.7,0000.0,0003.64,0002.13,0001.72
2023-06-04 00:59:00,SystemResetWarning,0832.5,5.00,000.00,030.0,028.5,000.0,038.3,031.6,27.6,0000.0,0003.79,0002.19,0001.74
